Change the Weather History Date:

Wednesday, October 3, 2012

  Actual Average Record
Temperature  
Mean Temperature 49 °F 44 °F  
Max Temperature 51 °F 49 °F 59 °F (1954)
Min Temperature 46 °F 39 °F 31 °F (1961)
Degree Days  
Heating Degree Days 16 21  
Month to date heating degree days 49 63  
Since 1 July heating degree days 1566 1414  
Cooling Degree Days 0    
Month to date cooling degree days 0  
Year to date cooling degree days 0  
Moisture  
Dew Point 46 °F    
Average Humidity 0    
Maximum Humidity 0    
Minimum Humidity 0    
Precipitation  
Precipitation 0.17 in 0.16 in 0.54 in (1957)
Month to date precipitation 0.93 0.48  
Year to date precipitation 32.09 27.95  
Snow  
Snow 0.00 in 0.00 in 0.10 in (1987)
Month to date snowfall 0.0 0.0  
Since 1 July snowfall T 0.0  
Since 1 September snowfall 0.0 0.0  
Snow Depth 0.00 in    
Sea Level Pressure  
Sea Level Pressure 29.32 in    
Wind  
Wind Speed 30 mph (SE)    
Max Wind Speed 55 mph    
Max Gust Speed 69 mph    
Visibility 7 miles    
Events Rain    
T = Trace of Precipitation, MM = Missing Value Source: NWS Daily Summary

Daily Weather History Graph

Daily Weather History Graph

Search for Another Location

Airport or City:

Trip Planner

Search our weather history database for the weather conditions in past years. The results will help you decide how hot, cold, wet, or windy it might be!

Date:

Astronomy

Oct. 03, 2012 Rise Set
Actual Time 8:58 AM AKDT 8:19 PM AKDT
Civil Twilight 8:22 AM AKDT 8:55 PM AKDT
Nautical Twilight 7:40 AM AKDT 9:37 PM AKDT
Astronomical Twilight 6:56 AM AKDT 10:21 PM AKDT
Moon 9:35 PM AKDT (10/3) 1:16 PM AKDT (10/3)
Length of Visible Light 12h 33m
Length of Day
11h 20m
Waning Gibbous, 88% of the Moon is Illuminated
Oct 3
Waning Gibbous
Oct 7
Last Quarter
Oct 15
New
Oct 21
First Quarter
Oct 29
Full

Hourly Weather History & Observations

Time (AKDT) Temp. Windchill Dew Point Humidity Pressure Visibility Wind Dir Wind Speed Gust Speed Precip Events Conditions
12:48 AM 48.2 °F - 44.6 °F 87% 29.73 in 10.0 mi SSE 28.8 mph 39.1 mph N/A   Mostly Cloudy
12:53 AM 48.0 °F - 45.0 °F 89% 29.74 in 10.0 mi SSE 20.7 mph 39.1 mph N/A   Mostly Cloudy
1:09 AM 48.2 °F - 46.4 °F 93% 29.73 in 10.0 mi SE 15.0 mph 25.3 mph N/A   Mostly Cloudy
1:53 AM 48.0 °F - 45.0 °F 89% 29.70 in 10.0 mi SSE 19.6 mph 28.8 mph N/A   Overcast
2:08 AM 48.2 °F - 44.6 °F 87% 29.68 in 10.0 mi SE 19.6 mph 29.9 mph N/A   Overcast
2:53 AM 48.0 °F - 45.0 °F 89% 29.68 in 10.0 mi SE 28.8 mph 35.7 mph N/A   Overcast
3:11 AM 48.2 °F - 44.6 °F 87% 29.67 in 10.0 mi SE 25.3 mph 41.4 mph N/A   Overcast
3:33 AM 48.2 °F - 44.6 °F 87% 29.65 in 10.0 mi SE 28.8 mph 41.4 mph N/A   Overcast
3:49 AM 48.2 °F - 44.6 °F 87% 29.64 in 10.0 mi SE 27.6 mph 40.3 mph 0.00 in Rain Light Rain
3:53 AM 48.0 °F - 44.1 °F 86% 29.64 in 10.0 mi SE 26.5 mph 40.3 mph 0.00 in Rain Light Rain
4:33 AM 48.2 °F - 44.6 °F 87% 29.62 in 10.0 mi SSE 24.2 mph 36.8 mph 0.02 in Rain Light Rain
4:53 AM 48.0 °F - 45.0 °F 89% 29.60 in 10.0 mi SSE 17.3 mph 27.6 mph 0.02 in Rain Light Rain
5:05 AM 48.2 °F - 44.6 °F 87% 29.59 in 10.0 mi SSE 13.8 mph 23.0 mph 0.00 in Rain Light Rain
5:53 AM 48.9 °F - 45.0 °F 86% 29.54 in 10.0 mi SE 24.2 mph 34.5 mph 0.00 in Rain Light Rain
6:53 AM 50.0 °F - 45.0 °F 83% 29.49 in 10.0 mi ESE 17.3 mph 25.3 mph 0.00 in Rain Light Rain
7:24 AM 48.2 °F - 44.6 °F 87% 29.47 in 10.0 mi East 16.1 mph 28.8 mph 0.00 in Rain Light Rain
7:53 AM 48.9 °F - 45.0 °F 86% 29.45 in 10.0 mi ESE 16.1 mph 23.0 mph 0.00 in   Overcast
8:05 AM 48.2 °F - 44.6 °F 87% 29.43 in 10.0 mi ESE 16.1 mph 29.9 mph N/A   Overcast
8:22 AM 50.0 °F - 44.6 °F 82% 29.42 in 10.0 mi East 20.7 mph 26.5 mph N/A   Overcast
8:53 AM 48.9 °F - 44.1 °F 83% 29.41 in 10.0 mi East 26.5 mph 35.7 mph N/A   Overcast
9:53 AM 50.0 °F - 46.0 °F 86% 29.36 in 10.0 mi ESE 25.3 mph - N/A   Overcast
10:53 AM 50.0 °F - 46.9 °F 89% 29.33 in 4.0 mi SE 21.9 mph - 0.00 in Rain Light Rain
11:03 AM 50.0 °F - 46.4 °F 87% 29.33 in 9.0 mi SE 19.6 mph 31.1 mph 0.00 in   Overcast
11:37 AM 50.0 °F - 48.2 °F 94% 29.31 in 2.5 mi SE 27.6 mph 34.5 mph 0.01 in Rain Light Rain
11:53 AM 50.0 °F - 48.0 °F 93% 29.30 in 2.0 mi SE 27.6 mph 35.7 mph 0.01 in   Overcast
12:06 PM 50.0 °F - 48.2 °F 94% 29.29 in 3.0 mi SE 28.8 mph 34.5 mph 0.01 in Rain Light Rain
12:48 PM 50.0 °F - 48.2 °F 94% 29.28 in 4.0 mi SE 23.0 mph 31.1 mph 0.02 in Rain Light Rain
12:53 PM 50.0 °F - 48.9 °F 96% 29.28 in 2.5 mi SE 19.6 mph 29.9 mph 0.02 in Rain Light Rain
1:08 PM 50.0 °F - 48.2 °F 94% 29.26 in 2.0 mi SE 19.6 mph 26.5 mph 0.02 in Rain Rain
1:18 PM 50.0 °F - 48.2 °F 94% 29.24 in 1.5 mi SE 21.9 mph 29.9 mph 0.04 in Rain Light Rain
1:32 PM 51.8 °F - 48.2 °F 88% 29.21 in 2.0 mi SE 26.5 mph 39.1 mph 0.05 in   Overcast
1:49 PM 51.8 °F - 48.2 °F 88% 29.20 in 1.8 mi SSE 31.1 mph 47.2 mph 0.06 in   Overcast
1:53 PM 51.1 °F - 48.9 °F 92% 29.20 in 1.5 mi SSE 32.2 mph 47.2 mph 0.06 in   Overcast
2:07 PM 50.0 °F - 48.2 °F 94% 29.20 in 2.0 mi SSE 33.4 mph 44.9 mph 0.02 in   Overcast
2:20 PM 50.0 °F - 48.2 °F 94% 29.19 in 1.5 mi SSE 38.0 mph 49.5 mph 0.02 in   Overcast
2:53 PM 50.0 °F - 50.0 °F 100% 29.16 in 1.8 mi SSE 43.7 mph 55.2 mph 0.04 in   Overcast
3:38 PM 50.0 °F - 50.0 °F 100% 29.12 in 2.0 mi SSE 43.7 mph 58.7 mph N/A   Overcast
3:53 PM 50.0 °F - 50.0 °F 100% 29.11 in 2.5 mi SSE 48.3 mph 59.8 mph N/A   Overcast
4:00 PM 50.0 °F - 48.2 °F 94% 29.11 in 6.0 mi SSE 55.2 mph 64.4 mph N/A   Overcast
4:20 PM 50.0 °F - 50.0 °F 100% 29.11 in 6.0 mi SSE 51.8 mph 64.4 mph N/A   Scattered Clouds
4:35 PM 50.0 °F - 48.2 °F 94% 29.11 in 6.0 mi SSE 49.5 mph 61.0 mph N/A   Mostly Cloudy
4:53 PM 50.0 °F - 48.9 °F 96% 29.11 in 9.0 mi SSE 49.5 mph 61.0 mph N/A   Mostly Cloudy
4:55 PM 50.0 °F - 48.2 °F 94% 29.11 in 10.0 mi SSE 48.3 mph 61.0 mph N/A   Scattered Clouds
5:21 PM 48.2 °F - 46.4 °F 93% 29.13 in 3.0 mi SSE 49.5 mph 69.0 mph N/A   Mostly Cloudy
5:30 PM 48.2 °F - 46.4 °F 93% 29.13 in 2.5 mi SSE 47.2 mph 57.5 mph N/A   Mostly Cloudy
5:39 PM 48.2 °F - 48.2 °F 100% 29.13 in 6.0 mi SSE 47.2 mph 59.8 mph N/A   Overcast
5:53 PM 48.9 °F - 46.9 °F 93% 29.14 in 10.0 mi SSE 48.3 mph 57.5 mph N/A   Mostly Cloudy
6:46 PM 48.2 °F - 46.4 °F 93% 29.14 in 2.5 mi SE 43.7 mph 57.5 mph N/A   Overcast
6:53 PM 48.0 °F - 46.0 °F 93% 29.14 in 8.0 mi SE 43.7 mph 54.1 mph N/A   Overcast
7:14 PM 48.2 °F - 46.4 °F 93% 29.13 in 1.8 mi SE 42.6 mph 54.1 mph N/A   Overcast
7:24 PM 48.2 °F - 46.4 °F 93% 29.12 in 2.0 mi SSE 47.2 mph 57.5 mph N/A   Overcast
7:32 PM 48.2 °F - 46.4 °F 93% 29.12 in 4.0 mi SSE 41.4 mph 57.5 mph N/A   Overcast
7:53 PM 48.0 °F - 46.0 °F 93% 29.12 in 3.0 mi SSE 43.7 mph 55.2 mph 0.01 in   Overcast
8:04 PM 48.2 °F - 46.4 °F 93% 29.12 in 9.0 mi SSE 42.6 mph 57.5 mph N/A   Overcast
8:30 PM 48.2 °F - 46.4 °F 93% 29.13 in 6.0 mi SSE 39.1 mph 49.5 mph N/A   Overcast
8:53 PM 48.0 °F - 46.0 °F 93% 29.15 in 4.0 mi SSE 34.5 mph 48.3 mph N/A   Overcast
9:48 PM 46.4 °F 37.5 °F 44.6 °F 93% 29.19 in 6.0 mi South 27.6 mph 41.4 mph 0.01 in   Overcast
9:53 PM 46.9 °F - 45.0 °F 93% 29.19 in 7.0 mi South 21.9 mph 41.4 mph 0.01 in   Overcast
10:00 PM 46.4 °F 37.2 °F 44.6 °F 93% 29.19 in 8.0 mi South 29.9 mph 39.1 mph N/A   Overcast
10:25 PM 46.4 °F 37.7 °F 44.6 °F 93% 29.20 in 7.0 mi SSE 26.5 mph 40.3 mph 0.00 in   Overcast
10:53 PM 46.9 °F - 44.1 °F 90% 29.20 in 9.0 mi SSE 25.3 mph 40.3 mph 0.00 in Rain Light Rain
11:46 PM 46.4 °F 37.5 °F 44.6 °F 93% 29.25 in 10.0 mi SSE 27.6 mph 33.4 mph 0.00 in   Mostly Cloudy
11:53 PM 46.9 °F - 42.1 °F 83% 29.27 in 10.0 mi SSE 27.6 mph 39.1 mph 0.00 in   Mostly Cloudy